City of Derry Airport

Jump to: basic info | weather | frequencies | runways | comments

Related pages: nearby airports | nearby navaids | notams | map

Basic information (top)

Codes: LDY EGAE
Location: lon 55.042801, lat -7.161110, elev 22 ft / 7 m msl
Status: medium_airport
Scheduled airline service: yes
Links: Wikipedia Mobile

Weather (top)

Current conditions (rec'd 2014/07/26 15:50Z):

EGAE 261550Z 29013KT 250V320 9999 FEW028 SCT045 19/13 Q1017

Airport forecast for Belfast International Airport 40nm (74km) SE (rec'd 2014/07/26 12:15Z):

TAF TAF EGAA 261059Z 2612/2712 21005KT 9999 SCT012 SCT030 
      BECMG 2612/2615 33010KT 
      TEMPO 2612/2712 6000 RA SHRA BKN008 PROB30 
      TEMPO 2612/2619 4000 +TSRA 
      BECMG 2618/2621 26005KT 
      BECMG 2708/2712 26018G28KT PROB30 
      TEMPO 2710/2712 4000 +TSRA

Frequencies (top)

Verify before use: may be inaccurate or out of date.

APP: 123.625 MHz (APP)
TWR: 134.15 MHz (TWR)

Runways (top)

02/20: 3,955 x 148 ft (1,205 x 45 m) — paved — lighted — threshold 02 displaced 435 ft (133 m)

08/26: 6,076 x 147 ft (1,852 x 45 m) — paved — lighted — threshold 08 displaced 433 ft (132 m)

Latest comments (top)

Excellant airport: You have full services ils , fuel car ... [read]

More... (top)

See also NOTAMs and nearby airports and navaids, or visit the City of Derry Airport page at the main OurAirports website..